Location: ????
(30.1475°N, 31.1342°E)
Time: 11:35:13
(UTC+00:00)

Cosmos 1656 - Pass Details

Date: 27 September 2022
Orbit: 797 x 850 km, 71.1° (Epoch: 26 November)

Event Time Altitude Azimuth Distance (km) Brightness Sun altitude
Rises 01:57:57 0° 341° (NNW) 3,415 6.8 -24.1°
Reaches altitude 10° 02:00:25 10° 343° (NNW) 2,477 6.1 -23.6°
Maximum altitude 02:06:07 82° 70° (ENE) 858 3.7 -22.4°
Drops below altitude 10° 02:11:45 10° 159° (SSE) 2,447 6.2 -21.2°
Sets 02:14:11 0° 160° (SSE) 3,372 7.0 -20.7°
